{"data":{"norad_id":65452,"intl_designator":"2025-194U","name":"STARLINK-35084","alt_names":[],"object_type":"PAYLOAD","status":"ACTIVE","operator":null,"country":"US","launch_date":"2025-09-03","launch_site_code":"AFWTR","launch_vehicle":null,"mission":null,"orbit_class":"UNKNOWN","rcs_meters":null,"size_class":null,"mass_kg":null,"dimensions":null,"purposes":["comms"],"wikipedia_slug":null,"has_3d_model":false,"image_url":null,"decayed_at":null,"tle_current":{"epoch":"2026-05-25T02:26:29.446080Z","epoch_age_seconds":63576,"freshness":"FRESH","line1":"1 65452U 25194U   26145.10172970  .00002333  00000+0  16569-3 0  9998","line2":"2 65452  97.4538 359.3072 0003312  84.1603 276.0002 15.05654395 41140","mean_motion":15.05654395,"eccentricity":0.0003312,"inclination_deg":97.4538,"raan_deg":359.3072,"arg_perigee_deg":84.1603,"mean_anomaly_deg":276.0002,"bstar":0.00016569,"rev_number":4114,"period_min":95.639477743496,"perigee_km":547.20324024149,"apogee_km":551.79210544878,"semimajor_km":6927.6346728451,"source":"CELESTRAK","updated_at":"2026-05-25T13:38:20.809778Z"}}}